Torna al catalogo

STARLINK-36284

AttivoComunicazioniVLEO
NORAD 67194·PAYLOAD·🇺🇸 United States

Lanciato Dec 17, 2025 da Vandenberg Space Force Base

Loading…

Prossimi Passaggi (prossime 24 ore)

TLE

AggiornatoSource: CelesTrak SupGP

Epoca: Sep 15, 2026, 04:03 UTC

1 67194C 25304C   26258.16923611 -.00014369  00000+0 -12048-2 0  2582
2 67194  70.0009  56.8162 0002560 274.2437 109.4087 14.98320466    18

Traccia STARLINK-36284 in tempo reale con AllMySat

Download on the App Store